Regional Weather Roundup
Issued by NWS

Home | Current Version | Previous Version | Graphics & Text | Print | Product List | Glossary Off
Versions: 1 2 3 4 5 6 7 8 9 10 11 12 13 14 15 16 17 18 19 20 21 22 23 24 25 26 27 28 29 30 31 32 33 34 35 36 37 38 39 40 41 42 43 44 45 46 47 48 49 50

000
ASUS44 KMEG 021910
RWRTN
TENNESSEE HOURLY STATE WEATHER ROUNDUP
NATIONAL WEATHER SERVICE MEMPHIS TN
200 PM CDT THU JUL 02 2015

TNZ002-004-019-021-049-052-054-088>092-022000-
WEST TENNESSEE

CITY           SKY/WX    TMP DP  RH WIND       PRES   REMARKS
MEMPHIS INTL   CLOUDY    84  70  62 SW14      29.90F
NWS MEMPHIS      N/A     83 N/A N/A MISG        N/A
JACKSON        PTSUNNY   84  71  65 SW12G18   29.89F
DYERSBURG        N/A    N/A N/A N/A MISG        N/A
PARIS          PTSUNNY   77  72  83 SW10      29.87S
LEXINGTON      PTSUNNY   81  72  74 SW9       29.89F
$$

TNZ008-025-027-028-033-062-065-066-022000-
NORTH MIDDLE TENNESSEE

CITY           SKY/WX    TMP DP  RH WIND       PRES   REMARKS
NASHVILLE      CLOUDY    83  75  77 S10       29.91F HX  90
CLARKSVILLE    PTSUNNY   83  73  72 S14       29.86F
SMYRNA         CLOUDY    82  73  74 VRB5      29.92F
COOKEVILLE     SUNNY     81  73  78 SW5       29.94S
CROSSVILLE     CLOUDY    75  67  76 VRB3      29.99F
$$

TNZ061-075-076-078-094-096-097-022000-
SOUTH MIDDLE TENNESSEE

CITY           SKY/WX    TMP DP  RH WIND       PRES   REMARKS
FAYETTEVILLE     N/A     77  73  88 VRB3      29.95F
TULLAHOMA      PTSUNNY   73  68  83 SE6       29.97F
WINCHESTER     CLOUDY    75  72  88 SE7       29.97R
MCMINNVILLE    MOSUNNY   81  73  78 S6        29.96R
COLUMBIA       MOSUNNY   84  75  74 SW14      29.90F HX  92
SHELBYVILLE    PTSUNNY   79  72  78 SE9       29.95F
$$

TNZ017-018-042-046-047-022000-
NORTHEAST TENNESSEE

CITY           SKY/WX    TMP DP  RH WIND       PRES   REMARKS
TRI CITIES     CLOUDY    73  65  75 SW10      29.98S
ELIZABETHTON   MOCLDY    72  64  78 W8        29.98F
$$

TNZ012-013-036-069-073-074-022000-
CENTRAL EAST TENNESSEE

CITY           SKY/WX    TMP DP  RH WIND       PRES   REMARKS
KNOXVILLE      CLOUDY    71  67  87 S5        29.95F
OAK RIDGE      CLOUDY    72  68  87 VRB5      29.97F
GATLINBURG     CLEAR     72  66  83 CALM      29.96F
MORRISTOWN     CLEAR     72  68  88 VRB3      29.98F
$$

TNZ083-085-099-022000-
SOUTHEAST TENNESSEE

CITY           SKY/WX    TMP DP  RH WIND       PRES   REMARKS
CHATTANOOGA    CLOUDY    71  68  90 SW8       29.99R
$$

SKY/WX REPORTED AS FAIR MEANS FEW OR NO CLOUDS BELOW
12 THOUSAND FEET.



USA.gov is the U.S. government's official web portal to all federal, state and local government web resources and services.